QPF
0.00 0.01 0.01 0.00 0.01 0.02 0.01 0.02 0.04 0.04 0.03 0.02 0.02 0.03 0.03 0.04 0.04 0.04 0.05 0.09 0.10 0.07 0.05 0.03 0.05 0.07 0.07 0.06 0.06 0.06 0.06 0.04 0.04 0.03 0.03 0.03 0.04 0.05 0.05 0.05 0.03 0.03 0.02 0.03
0.00 0.01 0.01 0.00 0.00 0.01 0.02 0.02 0.03 0.01 0.02 0.01 0.01 0.01 0.01 0.02 0.02 0.02 0.03 0.05 0.07 0.07 0.06 0.05 0.07 0.08 0.09 0.07 0.06 0.06 0.06 0.04 0.03 0.03 0.04 0.04 0.05 0.06 0.06 0.06 0.07 0.06 0.05 0.06
0.00 0.00 0.00 0.00 0.01 0.02 0.01 0.02 0.02 0.01 0.01 0.00 0.01 0.02 0.02 0.01 0.03 0.05 0.07 0.07 0.09 0.08 0.07 0.06 0.10 0.09 0.07 0.07 0.05 0.05 0.06 0.05 0.04 0.03 0.04 0.04 0.05 0.05 0.05 0.06 0.07 0.08 0.07 0.06
0.01 0.01 0.00 0.00 0.01 0.01 0.02 0.02 0.01 0.02 0.03 0.01 0.01 0.03 0.03 0.02 0.04 0.07 0.06 0.07 0.09 0.08 0.13 0.12 0.09 0.09 0.07 0.05 0.06 0.07 0.07 0.07 0.07 0.06 0.05 0.05 0.04 0.04 0.05 0.07 0.09 0.10 0.08 0.04
0.01 0.00 0.00 0.00 0.01 0.00 0.02 0.01 0.01 0.02 0.02 0.02 0.02 0.04 0.05 0.05 0.06 0.09 0.08 0.08 0.07 0.04 0.07 0.12 0.10 0.09 0.09 0.07 0.08 0.08 0.09 0.09 0.09 0.09 0.09 0.08 0.07 0.08 0.07 0.08 0.08 0.08 0.06 0.03
0.01 0.00 0.01 0.01 0.00 0.00 0.02 0.01 0.01 0.01 0.02 0.03 0.03 0.05 0.06 0.06 0.06 0.06 0.07 0.08 0.06 0.04 0.03 0.03 0.05 0.05 0.08 0.08 0.13 0.12 0.09 0.12 0.14 0.16 0.17 0.14 0.11 0.09 0.07 0.06 0.04 0.04 0.04 0.04
0.02 0.01 0.00 0.00 0.01 0.00 0.02 0.03 0.05 0.05 0.04 0.03 0.03 0.05 0.06 0.05 0.02 0.02 0.02 0.04 0.05 0.04 0.02 0.02 0.02 0.02 0.03 0.04 0.06 0.06 0.07 0.09 0.12 0.16 0.19 0.19 0.15 0.12 0.11 0.10 0.09 0.09 0.08 0.07
0.04 0.03 0.01 0.01 0.00 0.01 0.02 0.03 0.06 0.07 0.07 0.05 0.03 0.05 0.05 0.02 0.01 0.01 0.01 0.02 0.03 0.03 0.02 0.02 0.02 0.02 0.02 0.02 0.03 0.04 0.06 0.07 0.08 0.10 0.13 0.13 0.12 0.12 0.13 0.13 0.14 0.13 0.10 0.07
0.03 0.01 0.00 0.01 0.00 0.00 0.01 0.02 0.03 0.06 0.08 0.09 0.05 0.04 0.04 0.02 0.02 0.02 0.02 0.02 0.03 0.03 0.02 0.01 0.01 0.01 0.01 0.02 0.03 0.03 0.05 0.05 0.05 0.07 0.08 0.09 0.11 0.13 0.14 0.14 0.12 0.09 0.07 0.05
0.01 0.01 0.00 0.00 0.00 0.00 0.01 0.02 0.04 0.06 0.08 0.08 0.06 0.07 0.07 0.05 0.03 0.03 0.01 0.01 0.02 0.03 0.02 0.02 0.02 0.02 0.02 0.02 0.03 0.04 0.05 0.05 0.05 0.06 0.06 0.07 0.09 0.11 0.12 0.11 0.08 0.07 0.06 0.05
0.01 0.01 0.01 0.01 0.01 0.01 0.01 0.02 0.03 0.04 0.04 0.06 0.08 0.11 0.08 0.06 0.04 0.02 0.02 0.01 0.01 0.02 0.02 0.03 0.03 0.02 0.03 0.03 0.04 0.03 0.04 0.05 0.04 0.04 0.05 0.06 0.07 0.09 0.09 0.09 0.08 0.06 0.05 0.03
0.01 0.02 0.01 0.01 0.01 0.01 0.01 0.01 0.02 0.04 0.04 0.04 0.06 0.07 0.05 0.04 0.03 0.02 0.02 0.01 0.01 0.02 0.02 0.03 0.04 0.03 0.03 0.03 0.03 0.02 0.02 0.03 0.03 0.04 0.04 0.05 0.06 0.06 0.06 0.07 0.07 0.05 0.04 0.03
0.01 0.02 0.03 0.03 0.03 0.02 0.01 0.01 0.01 0.02 0.02 0.03 0.04 0.06 0.04 0.03 0.02 0.02 0.02 0.01 0.01 0.01 0.02 0.03 0.03 0.03 0.03 0.03 0.03 0.02 0.02 0.02 0.02 0.03 0.04 0.04 0.04 0.05 0.06 0.06 0.04 0.03 0.03 0.03
0.01 0.03 0.05 0.05 0.04 0.02 0.02 0.01 0.00 0.01 0.03 0.03 0.03 0.05 0.06 0.06 0.04 0.02 0.02 0.01 0.01 0.01 0.02 0.03 0.03 0.03 0.04 0.04 0.02 0.02 0.02 0.02 0.02 0.02 0.03 0.04 0.04 0.03 0.04 0.05 0.03 0.03 0.03 0.03
0.03 0.03 0.05 0.01 0.01 0.01 0.01 0.01 0.01 0.01 0.02 0.02 0.03 0.05 0.08 0.08 0.04 0.03 0.03 0.02 0.01 0.01 0.01 0.03 0.04 0.04 0.04 0.04 0.03 0.02 0.02 0.02 0.02 0.02 0.03 0.04 0.04 0.03 0.03 0.03 0.03 0.03 0.02 0.02
0.02 0.02 0.04 0.02 0.00 0.00 0.00 0.00 0.01 0.01 0.01 0.01 0.02 0.03 0.03 0.03 0.02 0.01 0.01 0.01 0.00 0.00 0.01 0.02 0.03 0.04 0.04 0.03 0.03 0.02 0.02 0.03 0.03 0.03 0.04 0.04 0.04 0.03 0.03 0.02 0.02 0.02 0.02 0.03
0.01 0.03 0.04 0.03 0.01 0.01 0.02 0.01 0.01 0.01 0.01 0.01 0.02 0.03 0.02 0.02 0.02 0.01 0.01 0.01 0.01 0.01 0.01 0.02 0.02 0.04 0.04 0.04 0.03 0.02 0.02 0.02 0.03 0.04 0.04 0.04 0.03 0.02 0.02 0.02 0.02 0.02 0.02 0.02
0.04 0.05 0.06 0.04 0.03 0.04 0.02 0.00 0.00 0.02 0.01 0.01 0.02 0.02 0.02 0.02 0.03 0.02 0.01 0.01 0.01 0.02 0.03 0.03 0.03 0.04 0.05 0.04 0.04 0.04 0.04 0.04 0.03 0.03 0.03 0.02 0.02 0.02 0.02 0.03 0.03 0.02 0.02 0.02
0.01 0.04 0.04 0.03 0.04 0.03 0.01 0.01 0.01 0.01 0.03 0.01 0.01 0.02 0.02 0.01 0.01 0.01 0.01 0.00 0.01 0.01 0.02 0.02 0.03 0.05 0.06 0.05 0.06 0.06 0.05 0.03 0.02 0.02 0.02 0.01 0.01 0.02 0.03 0.03 0.03 0.03 0.02 0.02
0.01 0.02 0.03 0.03 0.05 0.05 0.04 0.02 0.01 0.01 0.03 0.02 0.01 0.02 0.02 0.02 0.03 0.02 0.00 0.00 0.01 0.01 0.01 0.02 0.03 0.05 0.07 0.07 0.07 0.07 0.06 0.04 0.02 0.02 0.02 0.01 0.01 0.02 0.03 0.03 0.02 0.02 0.02 0.02
0.02 0.03 0.03 0.03 0.05 0.03 0.02 0.01 0.01 0.03 0.04 0.02 0.02 0.02 0.03 0.03 0.02 0.01 0.00 0.01 0.01 0.02 0.02 0.02 0.02 0.04 0.07 0.07 0.07 0.06 0.05 0.04 0.03 0.02 0.02 0.02 0.01 0.02 0.03 0.04 0.04 0.03 0.03 0.02
0.02 0.04 0.04 0.05 0.06 0.04 0.02 0.02 0.04 0.04 0.03 0.02 0.01 0.02 0.02 0.02 0.01 0.01 0.01 0.02 0.02 0.02 0.02 0.02 0.02 0.03 0.06 0.06 0.04 0.04 0.04 0.03 0.03 0.02 0.02 0.02 0.02 0.02 0.03 0.04 0.05 0.05 0.05 0.04
0.01 0.03 0.03 0.04 0.04 0.03 0.02 0.03 0.05 0.05 0.02 0.01 0.02 0.02 0.01 0.01 0.01 0.01 0.02 0.02 0.02 0.03 0.02 0.02 0.02 0.02 0.03 0.04 0.03 0.03 0.03 0.03 0.02 0.02 0.02 0.02 0.02 0.02 0.02 0.03 0.04 0.05 0.05 0.04
0.01 0.01 0.01 0.02 0.02 0.01 0.00 0.01 0.03 0.06 0.05 0.04 0.03 0.02 0.01 0.01 0.01 0.02 0.03 0.02 0.03 0.03 0.03 0.03 0.03 0.03 0.02 0.03 0.03 0.03 0.02 0.02 0.01 0.01 0.02 0.02 0.03 0.02 0.01 0.02 0.02 0.02 0.01 0.01
0.02 0.03 0.02 0.02 0.02 0.01 0.01 0.02 0.02 0.04 0.05 0.06 0.04 0.03 0.01 0.01 0.01 0.02 0.03 0.03 0.03 0.03 0.03 0.03 0.04 0.03 0.03 0.04 0.04 0.03 0.02 0.02 0.02 0.02 0.02 0.02 0.02 0.02 0.02 0.01 0.01 0.00 0.00 0.00
0.03 0.03 0.03 0.03 0.02 0.02 0.01 0.01 0.01 0.02 0.03 0.03 0.02 0.02 0.01 0.01 0.02 0.02 0.03 0.03 0.03 0.03 0.03 0.03 0.02 0.02 0.03 0.04 0.04 0.04 0.03 0.02 0.02 0.02 0.03 0.02 0.01 0.01 0.01 0.00 0.00 0.00 0.01 0.00
MSLP
1008.00 1008.08 1007.94 1007.62 1007.22 1006.87 1006.67 1006.68 1006.94 1007.38 1007.91 1008.43 1008.81 1008.97 1008.88 1008.58 1008.13 1007.67 1007.32 1007.19 1007.32 1007.75 1008.43 1009.27 1010.17 1011.03 1011.77 1012.35 1012.76 1013.04 1013.23 1013.39 1013.57 1013.78 1014.04 1014.32 1014.60 1014.84 1015.02 1015.15 1015.21 1015.25 1015.27 1015.32
1008.04 1008.01 1007.76 1007.35 1006.91 1006.54 1006.36 1006.43 1006.74 1007.24 1007.81 1008.33 1008.67 1008.77 1008.59 1008.19 1007.67 1007.17 1006.82 1006.73 1006.96 1007.51 1008.33 1009.31 1010.32 1011.27 1012.07 1012.66 1013.07 1013.33 1013.49 1013.63 1013.80 1014.02 1014.30 1014.60 1014.90 1015.15 1015.33 1015.43 1015.46 1015.45 1015.42 1015.43
1007.97 1007.85 1007.52 1007.07 1006.62 1006.29 1006.17 1006.32 1006.71 1007.26 1007.84 1008.33 1008.61 1008.61 1008.33 1007.83 1007.24 1006.71 1006.37 1006.35 1006.69 1007.38 1008.35 1009.48 1010.62 1011.66 1012.51 1013.13 1013.53 1013.77 1013.90 1014.02 1014.17 1014.39 1014.68 1014.99 1015.30 1015.56 1015.73 1015.80 1015.79 1015.73 1015.66 1015.61
1007.79 1007.60 1007.24 1006.81 1006.43 1006.19 1006.19 1006.46 1006.94 1007.54 1008.13 1008.58 1008.78 1008.67 1008.27 1007.67 1007.00 1006.45 1006.13 1006.18 1006.63 1007.46 1008.57 1009.83 1011.09 1012.22 1013.12 1013.76 1014.16 1014.38 1014.48 1014.56 1014.69 1014.90 1015.17 1015.49 1015.80 1016.05 1016.20 1016.25 1016.20 1016.09 1015.96 1015.86
1007.53 1007.31 1006.97 1006.62 1006.35 1006.27 1006.44 1006.85 1007.45 1008.12 1008.73 1009.14 1009.25 1009.03 1008.52 1007.82 1007.09 1006.50 1006.21 1006.31 1006.85 1007.78 1009.01 1010.38 1011.73 1012.93 1013.88 1014.54 1014.93 1015.12 1015.19 1015.24 1015.33 1015.50 1015.75 1016.04 1016.34 1016.57 1016.70 1016.72 1016.63 1016.48 1016.30 1016.14
1007.22 1007.01 1006.73 1006.50 1006.39 1006.50 1006.86 1007.44 1008.17 1008.92 1009.54 1009.92 1009.97 1009.67 1009.07 1008.29 1007.51 1006.91 1006.62 1006.77 1007.37 1008.37 1009.67 1011.11 1012.52 1013.75 1014.72 1015.38 1015.76 1015.93 1015.96 1015.96 1016.01 1016.13 1016.33 1016.59 1016.84 1017.04 1017.15 1017.14 1017.03 1016.83 1016.61 1016.40
1006.93 1006.74 1006.55 1006.45 1006.52 1006.81 1007.35 1008.09 1008.93 1009.75 1010.40 1010.77 1010.78 1010.43 1009.78 1008.98 1008.18 1007.58 1007.32 1007.50 1008.13 1009.16 1010.49 1011.94 1013.36 1014.59 1015.56 1016.21 1016.57 1016.70 1016.69 1016.65 1016.64 1016.70 1016.84 1017.04 1017.24 1017.40 1017.48 1017.45 1017.31 1017.10 1016.84 1016.59
1006.70 1006.55 1006.45 1006.47 1006.68 1007.12 1007.79 1008.63 1009.55 1010.41 1011.08 1011.44 1011.45 1011.10 1010.47 1009.70 1008.95 1008.39 1008.18 1008.38 1009.03 1010.06 1011.36 1012.78 1014.16 1015.35 1016.28 1016.90 1017.23 1017.33 1017.29 1017.20 1017.13 1017.12 1017.19 1017.32 1017.47 1017.58 1017.63 1017.58 1017.44 1017.22 1016.96 1016.69
1006.58 1006.47 1006.43 1006.53 1006.83 1007.34 1008.07 1008.94 1009.87 1010.72 1011.38 1011.74 1011.78 1011.48 1010.93 1010.26 1009.62 1009.17 1009.03 1009.29 1009.94 1010.94 1012.19 1013.53 1014.82 1015.94 1016.80 1017.37 1017.67 1017.74 1017.67 1017.54 1017.42 1017.35 1017.35 1017.41 1017.50 1017.56 1017.58 1017.52 1017.39 1017.19 1016.95 1016.68
1006.57 1006.50 1006.50 1006.64 1006.95 1007.45 1008.14 1008.95 1009.80 1010.58 1011.19 1011.55 1011.62 1011.42 1011.02 1010.51 1010.05 1009.76 1009.75 1010.07 1010.74 1011.70 1012.86 1014.09 1015.27 1016.28 1017.06 1017.57 1017.83 1017.89 1017.80 1017.65 1017.49 1017.38 1017.33 1017.32 1017.35 1017.37 1017.37 1017.31 1017.20 1017.04 1016.83 1016.60
1006.68 1006.64 1006.66 1006.79 1007.05 1007.46 1008.02 1008.67 1009.36 1010.00 1010.51 1010.84 1010.95 1010.88 1010.65 1010.38 1010.15 1010.07 1010.22 1010.65 1011.34 1012.26 1013.32 1014.42 1015.46 1016.35 1017.04 1017.49 1017.72 1017.77 1017.69 1017.54 1017.38 1017.25 1017.15 1017.10 1017.08 1017.07 1017.05 1017.01 1016.93 1016.81 1016.66 1016.49
1006.85 1006.85 1006.88 1006.98 1007.16 1007.43 1007.79 1008.22 1008.68 1009.11 1009.48 1009.75 1009.90 1009.95 1009.93 1009.90 1009.94 1010.10 1010.45 1010.99 1011.72 1012.60 1013.56 1014.53 1015.43 1016.19 1016.78 1017.18 1017.39 1017.46 1017.41 1017.30 1017.16 1017.03 1016.92 1016.84 1016.79 1016.75 1016.72 1016.69 1016.65 1016.59 1016.50 1016.39
1007.02 1007.08 1007.14 1007.21 1007.29 1007.40 1007.55 1007.72 1007.92 1008.12 1008.31 1008.49 1008.65 1008.80 1008.97 1009.19 1009.49 1009.91 1010.45 1011.12 1011.89 1012.74 1013.61 1014.45 1015.22 1015.86 1016.36 1016.72 1016.93 1017.03 1017.04 1016.98 1016.90 1016.80 1016.70 1016.61 1016.54 1016.49 1016.45 1016.43 1016.42 1016.40 1016.38 1016.33
1007.14 1007.28 1007.39 1007.45 1007.47 1007.43 1007.37 1007.30 1007.23 1007.19 1007.20 1007.26 1007.40 1007.63 1007.96 1008.39 1008.93 1009.57 1010.30 1011.09 1011.91 1012.74 1013.53 1014.25 1014.90 1015.43 1015.87 1016.19 1016.43 1016.57 1016.65 1016.68 1016.66 1016.61 1016.54 1016.46 1016.38 1016.32 1016.27 1016.26 1016.26 1016.28 1016.31 1016.31
1007.15 1007.38 1007.56 1007.65 1007.64 1007.51 1007.30 1007.02 1006.73 1006.47 1006.29 1006.24 1006.34 1006.60 1007.04 1007.64 1008.37 1009.20 1010.07 1010.97 1011.83 1012.64 1013.36 1014.00 1014.54 1015.00 1015.37 1015.69 1015.94 1016.15 1016.31 1016.42 1016.48 1016.49 1016.46 1016.40 1016.32 1016.24 1016.18 1016.16 1016.17 1016.21 1016.26 1016.30
1007.03 1007.34 1007.60 1007.75 1007.75 1007.59 1007.29 1006.87 1006.42 1005.99 1005.66 1005.49 1005.54 1005.81 1006.31 1007.02 1007.88 1008.84 1009.83 1010.79 1011.69 1012.49 1013.17 1013.73 1014.20 1014.60 1014.94 1015.25 1015.54 1015.80 1016.04 1016.23 1016.36 1016.43 1016.44 1016.39 1016.31 1016.21 1016.14 1016.09 1016.09 1016.13 1016.19 1016.24
1006.77 1007.13 1007.46 1007.68 1007.73 1007.59 1007.26 1006.79 1006.24 1005.71 1005.28 1005.03 1005.01 1005.27 1005.79 1006.55 1007.49 1008.53 1009.59 1010.61 1011.53 1012.32 1012.97 1013.49 1013.91 1014.27 1014.60 1014.91 1015.23 1015.54 1015.83 1016.08 1016.27 1016.38 1016.42 1016.38 1016.29 1016.18 1016.07 1016.00 1015.97 1015.99 1016.04 1016.10
1006.40 1006.74 1007.09 1007.36 1007.47 1007.38 1007.10 1006.65 1006.09 1005.53 1005.06 1004.76 1004.71 1004.94 1005.46 1006.23 1007.19 1008.26 1009.36 1010.40 1011.34 1012.13 1012.77 1013.28 1013.69 1014.03 1014.36 1014.68 1015.01 1015.35 1015.68 1015.96 1016.18 1016.31 1016.35 1016.31 1016.20 1016.06 1015.93 1015.83 1015.77 1015.77 1015.80 1015.85
1005.94 1006.19 1006.50 1006.77 1006.93 1006.91 1006.71 1006.33 1005.84 1005.33 1004.88 1004.59 1004.53 1004.75 1005.25 1006.01 1006.97 1008.04 1009.14 1010.19 1011.14 1011.94 1012.59 1013.11 1013.52 1013.87 1014.20 1014.53 1014.87 1015.22 1015.55 1015.83 1016.05 1016.17 1016.20 1016.14 1016.01 1015.84 1015.68 1015.55 1015.48 1015.45 1015.48 1015.52
1005.45 1005.52 1005.71 1005.93 1006.09 1006.14 1006.03 1005.77 1005.40 1005.00 1004.64 1004.41 1004.39 1004.62 1005.11 1005.85 1006.79 1007.84 1008.92 1009.97 1010.93 1011.75 1012.42 1012.96 1013.40 1013.78 1014.12 1014.46 1014.80 1015.13 1015.44 1015.70 1015.88 1015.97 1015.97 1015.87 1015.71 1015.52 1015.34 1015.19 1015.10 1015.08 1015.10 1015.15
1004.95 1004.76 1004.77 1004.88 1005.01 1005.10 1005.09 1004.97 1004.76 1004.52 1004.30 1004.19 1004.24 1004.51 1005.02 1005.75 1006.65 1007.67 1008.73 1009.77 1010.72 1011.56 1012.27 1012.85 1013.32 1013.73 1014.10 1014.44 1014.77 1015.07 1015.35 1015.56 1015.69 1015.73 1015.68 1015.54 1015.35 1015.14 1014.94 1014.79 1014.70 1014.68 1014.72 1014.79
1004.46 1003.98 1003.75 1003.70 1003.77 1003.87 1003.95 1003.99 1003.96 1003.91 1003.88 1003.92 1004.09 1004.44 1004.97 1005.70 1006.57 1007.56 1008.59 1009.60 1010.55 1011.41 1012.14 1012.76 1013.28 1013.72 1014.10 1014.45 1014.77 1015.04 1015.27 1015.42 1015.49 1015.48 1015.37 1015.19 1014.97 1014.74 1014.54 1014.39 1014.32 1014.32 1014.38 1014.48
1004.00 1003.21 1002.72 1002.50 1002.47 1002.57 1002.74 1002.92 1003.09 1003.25 1003.43 1003.65 1003.97 1004.41 1004.99 1005.73 1006.58 1007.53 1008.52 1009.50 1010.43 1011.29 1012.04 1012.69 1013.24 1013.72 1014.12 1014.48 1014.78 1015.03 1015.20 1015.31 1015.32 1015.25 1015.09 1014.88 1014.63 1014.39 1014.18 1014.04 1013.98 1014.00 1014.09 1014.23
1003.55 1002.48 1001.76 1001.36 1001.25 1001.34 1001.58 1001.90 1002.26 1002.64 1003.03 1003.45 1003.92 1004.47 1005.11 1005.86 1006.69 1007.59 1008.53 1009.47 1010.37 1011.20 1011.96 1012.62 1013.20 1013.70 1014.12 1014.48 1014.78 1015.00 1015.14 1015.20 1015.17 1015.05 1014.86 1014.62 1014.35 1014.10 1013.89 1013.75 1013.70 1013.74 1013.85 1014.01
1003.11 1001.83 1000.92 1000.38 1000.19 1000.28 1000.59 1001.04 1001.57 1002.15 1002.74 1003.34 1003.96 1004.61 1005.31 1006.07 1006.89 1007.74 1008.62 1009.49 1010.34 1011.14 1011.88 1012.54 1013.12 1013.63 1014.07 1014.43 1014.72 1014.93 1015.05 1015.09 1015.03 1014.88 1014.67 1014.41 1014.13 1013.87 1013.66 1013.52 1013.46 1013.50 1013.61 1013.77
1002.67 1001.26 1000.23 999.61 999.37 999.48 999.84 1000.40 1001.08 1001.82 1002.58 1003.33 1004.08 1004.82 1005.57 1006.34 1007.13 1007.93 1008.75 1009.55 1010.34 1011.08 1011.78 1012.41 1012.98 1013.49 1013.92 1014.29 1014.58 1014.78 1014.90 1014.93 1014.86 1014.71 1014.50 1014.23 1013.95 1013.68 1013.46 1013.31 1013.23 1013.24 1013.33 1013.47
Thickness
5770 5760 5757 5767 5774 5772 5771 5768 5766 5775 5788 5779 5772 5768 5773 5778 5776 5774 5771 5767 5761 5756 5757 5756 5753 5749 5744 5739 5734 5730 5726 5722 5718 5714 5710 5706 5703 5701 5699 5696 5692 5688 5685 5682
5763 5758 5774 5782 5780 5771 5766 5761 5762 5772 5782 5776 5770 5769 5777 5779 5774 5775 5770 5764 5759 5754 5750 5747 5745 5743 5738 5733 5729 5725 5721 5717 5713 5709 5707 5703 5699 5696 5693 5690 5686 5682 5679 5676
5760 5773 5783 5777 5771 5762 5760 5759 5762 5763 5772 5777 5768 5760 5768 5776 5778 5776 5773 5765 5759 5754 5746 5744 5739 5737 5733 5729 5725 5722 5717 5712 5708 5705 5702 5698 5693 5689 5685 5681 5678 5675 5672 5669
5770 5781 5778 5771 5766 5764 5756 5771 5769 5764 5757 5754 5760 5739 5757 5769 5767 5767 5765 5762 5756 5753 5747 5741 5736 5731 5729 5726 5723 5717 5712 5707 5703 5700 5695 5690 5685 5680 5678 5675 5673 5669 5665 5663
5766 5776 5770 5764 5768 5770 5762 5770 5767 5763 5755 5748 5751 5737 5747 5765 5757 5757 5758 5757 5754 5750 5746 5740 5735 5730 5727 5724 5718 5712 5707 5702 5698 5693 5689 5684 5679 5676 5673 5669 5665 5662 5659 5657
5770 5782 5779 5774 5778 5775 5768 5762 5760 5760 5752 5731 5740 5734 5739 5757 5755 5753 5755 5754 5751 5747 5744 5738 5734 5729 5723 5719 5713 5707 5701 5696 5692 5687 5683 5677 5673 5670 5665 5661 5658 5655 5653 5650
5754 5767 5777 5778 5763 5765 5760 5743 5724 5721 5725 5728 5745 5736 5739 5758 5767 5762 5754 5750 5747 5744 5738 5733 5728 5723 5717 5712 5708 5702 5696 5691 5686 5681 5676 5672 5668 5664 5659 5655 5651 5648 5646 5643
5738 5742 5763 5768 5759 5750 5752 5744 5718 5703 5707 5724 5738 5730 5744 5764 5768 5764 5756 5748 5743 5737 5733 5727 5723 5718 5712 5707 5702 5697 5691 5685 5681 5676 5671 5667 5663 5659 5655 5650 5646 5643 5639 5637
5738 5741 5764 5768 5770 5759 5746 5743 5744 5723 5715 5713 5725 5734 5741 5755 5753 5753 5747 5741 5735 5731 5727 5721 5716 5711 5707 5702 5696 5691 5685 5680 5675 5671 5666 5662 5658 5654 5649 5645 5642 5638 5634 5632
5748 5735 5752 5765 5766 5763 5758 5747 5733 5715 5699 5695 5711 5723 5722 5731 5736 5739 5738 5733 5729 5726 5720 5715 5710 5706 5701 5697 5692 5686 5681 5675 5671 5666 5661 5657 5652 5648 5644 5640 5635 5632 5630 5627
5750 5731 5738 5748 5742 5742 5747 5741 5732 5723 5718 5702 5698 5709 5733 5732 5733 5732 5732 5730 5726 5720 5714 5708 5704 5700 5695 5691 5686 5680 5675 5670 5665 5661 5657 5651 5647 5643 5639 5635 5631 5628 5625 5622
5745 5731 5725 5737 5754 5761 5751 5744 5736 5715 5713 5718 5707 5708 5739 5736 5737 5733 5728 5725 5721 5714 5709 5703 5698 5693 5689 5685 5681 5676 5671 5666 5661 5657 5652 5647 5643 5638 5634 5630 5626 5623 5620 5618
5736 5721 5707 5716 5730 5740 5736 5741 5741 5733 5721 5713 5703 5706 5736 5734 5732 5729 5721 5716 5711 5706 5702 5697 5691 5687 5682 5679 5676 5671 5667 5662 5658 5654 5649 5643 5638 5634 5629 5625 5622 5619 5616 5614
5733 5714 5705 5699 5709 5723 5723 5731 5737 5729 5714 5710 5710 5710 5717 5722 5720 5718 5713 5707 5703 5698 5695 5691 5684 5680 5677 5673 5671 5667 5662 5658 5655 5650 5645 5639 5635 5631 5627 5623 5619 5616 5613 5610
5727 5709 5713 5721 5727 5726 5726 5729 5733 5727 5725 5717 5716 5714 5713 5713 5715 5713 5708 5701 5695 5692 5689 5684 5680 5675 5672 5669 5665 5662 5658 5655 5651 5646 5641 5636 5632 5629 5625 5621 5618 5614 5611 5609
5722 5708 5709 5713 5724 5727 5726 5732 5736 5734 5733 5729 5722 5715 5720 5718 5715 5709 5704 5698 5692 5688 5685 5681 5676 5672 5668 5665 5661 5658 5654 5651 5647 5642 5638 5635 5630 5627 5623 5619 5616 5612 5609 5606
5717 5708 5699 5699 5719 5719 5712 5728 5732 5733 5736 5730 5718 5716 5722 5714 5711 5706 5702 5697 5691 5686 5682 5678 5674 5669 5665 5662 5658 5655 5652 5648 5644 5640 5637 5633 5629 5626 5622 5619 5615 5610 5607 5604
5710 5705 5700 5698 5701 5688 5717 5742 5739 5732 5732 5732 5725 5722 5719 5713 5711 5709 5704 5697 5692 5686 5679 5675 5671 5667 5663 5660 5656 5654 5650 5646 5642 5638 5635 5632 5628 5625 5621 5617 5613 5609 5605 5602
5720 5703 5695 5693 5691 5700 5720 5731 5731 5721 5718 5728 5722 5718 5716 5713 5707 5702 5701 5697 5691 5686 5679 5674 5670 5665 5661 5658 5654 5651 5647 5644 5640 5637 5634 5631 5628 5624 5619 5615 5611 5608 5604 5601
5722 5712 5697 5693 5684 5681 5704 5725 5734 5721 5704 5721 5719 5712 5709 5703 5691 5691 5696 5693 5688 5683 5678 5672 5668 5664 5659 5656 5654 5649 5645 5641 5637 5635 5633 5630 5627 5623 5619 5614 5610 5607 5604 5601
5704 5702 5696 5691 5688 5697 5713 5725 5724 5696 5695 5714 5715 5709 5706 5699 5694 5693 5692 5688 5683 5678 5674 5670 5666 5661 5658 5655 5652 5647 5643 5639 5637 5635 5632 5628 5625 5622 5618 5614 5610 5607 5604 5601
5699 5695 5692 5692 5684 5690 5718 5717 5705 5701 5711 5713 5711 5708 5703 5699 5695 5691 5687 5682 5677 5674 5670 5667 5662 5658 5656 5654 5650 5645 5641 5639 5636 5633 5630 5626 5623 5621 5618 5613 5609 5607 5604 5601
5702 5704 5700 5695 5696 5710 5716 5712 5712 5714 5708 5709 5706 5704 5700 5695 5690 5687 5682 5678 5675 5671 5668 5664 5661 5657 5654 5652 5649 5644 5641 5639 5635 5631 5628 5624 5621 5619 5617 5613 5610 5607 5604 5601
5703 5711 5704 5700 5705 5709 5713 5714 5714 5712 5708 5708 5706 5702 5697 5692 5688 5683 5679 5675 5672 5669 5665 5662 5659 5655 5652 5651 5649 5645 5642 5639 5635 5630 5627 5623 5621 5619 5616 5614 5611 5608 5605 5602
5691 5695 5695 5696 5702 5705 5705 5707 5706 5706 5707 5705 5702 5699 5696 5691 5686 5681 5676 5673 5670 5667 5664 5661 5657 5654 5652 5651 5648 5645 5642 5639 5634 5630 5627 5624 5623 5620 5617 5614 5612 5609 5607 5604
5692 5692 5689 5691 5701 5699 5698 5705 5705 5700 5698 5698 5696 5694 5694 5690 5685 5680 5675 5672 5669 5666 5663 5659 5657 5655 5653 5650 5648 5645 5642 5639 5634 5630 5627 5626 5624 5622 5619 5616 5613 5611 5608 5605